Skip Page Navigation
NASA JPL Caltech
NASA Logo - Jet Propulsion Laboratory + View the NASA Portal
+ Center for Near-Earth Object Studies
JPL Home Earth Solar System Stars & Galaxies Technology
JPL Solar System Dynamics
BODIES ORBITS EPHEMERIDES TOOLS PHYSICAL DATA DISCOVERY FAQ SITE MAP
JPL Small-Body Database Browser
Search: [ help ]  
437482 (2013 YZ51)
Classification: Main-belt Asteroid          SPK-ID: 2437482
Ephemeris | Orbit Diagram | Orbital Elements | Mission Design | Physical Parameters | Discovery Circumstances ]

[ show orbit diagram ]
Orbital Elements at Epoch 2459000.5 (2020-May-31.0) TDB
Reference: JPL 11 (heliocentric ecliptic J2000)
 Element Value Uncertainty (1-sigma)   Units 
e .07044816414817991 7.1154e-08  
a 2.257888232510575 2.6409e-08 au
q 2.098824151678426 1.7366e-07 au
i 7.482112140713303 6.8336e-06 deg
node 52.60676696591935 5.59e-05 deg
peri 11.46172949648003 8.2989e-05 deg
M 336.0613535762426 6.6229e-05 deg
tp 2459082.904167562108
(2020-Aug-21.40416756)
0.00022881 TDB
period 1239.230481006555
3.39
2.1742e-05
5.953e-08
d
yr
n .2905028608621643 5.0967e-09 deg/d
Q 2.416952313342724 2.8269e-08 au
  Orbit Determination Parameters
   # obs. used (total)      88  
   data-arc span      4690 days (12.84 yr)  
   first obs. used      2006-10-21  
   last obs. used      2019-08-24  
   planetary ephem.      DE431  
   SB-pert. ephem.      SB431-N16  
   condition code      0  
   norm. resid. RMS      .51095  
   source      ORB  
   producer      Otto Matic  
   solution date      2019-Sep-24 07:37:39  

Additional Information
 Earth MOID = 1.11214 au 
 Jupiter MOID = 2.78058 au 
 T_jup = 3.608 
[ hide covariance matrix ]
Orbital Elements at Epoch 2457536.5 (2016-May-28.0) TDB
Reference: JPL 11 (heliocentric ecliptic J2000)
 Element Value Uncertainty (1-sigma)   Units 
e .07066201095465825 7.1574e-08  
q 2.098681730376883 1.7489e-07 au
tp 2457840.222617755048
(2017-Mar-27.72261776)
0.00021528 TDB
node 52.62399208188548 5.5867e-05 deg
peri 10.56644128594816 8.2655e-05 deg
i 7.484728057130518 6.8361e-06 deg
  Orbit Determination Parameters
   # obs. used (total)      88  
   data-arc span      4690 days (12.84 yr)  
   first obs. used      2006-10-21  
   last obs. used      2019-08-24  
   planetary ephem.      DE431  
   SB-pert. ephem.      SB431-N16  
   condition code      0  
   norm. resid. RMS      .51095  
   source      ORB  
   producer      Otto Matic  
   solution date      2019-Sep-24 07:37:39  

Additional Information
 Jupiter MOID = 2.78058 au 
 T_jup = 3.608 
Orbit Covariance (6×6)
  e q tp node peri i
e 5.122888464548614E-15 -1.24208927230199E-14 -6.110879365257938E-12 -6.101456100860171E-15 -1.555891129863572E-12 -9.835073670977306E-15
q -1.24208927230199E-14 3.058527914701328E-14 1.652609368038672E-11 1.683650315673853E-14 4.23169648698608E-12 2.670058995822048E-14
tp -6.110879365257938E-12 1.652609368038672E-11 4.634361574090346E-8 -2.352351007824082E-12 1.314723180265667E-8 5.110341206572035E-11
node -6.101456100860171E-15 1.683650315673853E-14 -2.352351007824082E-12 3.121156925690509E-9 -3.095014900695274E-9 -6.13464970085844E-11
peri -1.555891129863572E-12 4.23169648698608E-12 1.314723180265667E-8 -3.095014900695274E-9 6.83189547601528E-9 7.516182044125417E-11
i -9.835073670977306E-15 2.670058995822048E-14 5.110341206572035E-11 -6.13464970085844E-11 7.516182044125417E-11 4.673273830441593E-11

Ephemeris | Orbit Diagram | Orbital Elements | Mission Design | Physical Parameters | Discovery Circumstances ]

Physical Parameter Table
Parameter Symbol Value Units Sigma Reference Notes
absolute magnitude H 17.7   n/a MPO495169  

437482 (2013 YZ51)          Discovered 2006-Oct-21 by Mt. Lemmon Survey at Mount Lemmon
Reference: Last Updated: 2015-06-04
Ephemeris | Orbit Diagram | Orbital Elements | Mission Design | Physical Parameters | Discovery Circumstances ]
ABOUT SSD CREDITS/AWARDS PRIVACY/COPYRIGHT GLOSSARY LINKS
FirstGov 2020-Sep-20 19:01 UT
(server date/time)  
NASA Home Page
Site Manager:   Ryan S. Park
Webmaster  Alan B. Chamberlin